Regional Weather Roundup
Issued by NWS

Home | Current Version | Previous Version | Text Only | Print | Product List | Glossary On
Versions: 1 2 3 4 5 6 7 8 9 10 11 12 13 14 15 16 17 18 19 20 21 22 23 24 25 26 27
000
ASUS44 KJAN 230610
RWRMS

MISSISSIPPI HOURLY WEATHER ROUNDUP
NATIONAL WEATHER SERVICE JACKSON MS
100 AM CDT WED AUG 23 2017

NOTE: "FAIR: INDICATES FEW OR NO CLOUDS BELOW 12,000 FEET WITH NO
SIGNIFICANT WEATHER AND/OR OBSTRUCTIONS TO VISIBILITY.

MSZ001>002-007>008-010>013-018>021-025>028-034>036-230700-
NORTHWEST MISSISSIPPI

CITY           SKY/WX    TMP DP  RH WIND       PRES   REMARKS
BATESVILLE     FAIR      73  71  95 CALM      30.03F FOG
CLARKSDALE       N/A     75  75 100 CALM      30.02F
CLEVELAND      MOCLDY    76  73  88 NW3       30.00F
GREENWOOD      PTCLDY    74  71  91 CALM      30.02F
6HR MIN TEMP:  74; 6HR MAX TEMP:  85;

GREENVILLE     MOCLDY    76  70  82 N6        30.03F
6HR MIN TEMP:  76; 6HR MAX TEMP:  90;

OXFORD         FAIR      72  72 100 CALM      30.04F
TUNICA           N/A     72  72 100 CALM      30.03F
WINONA         FAIR      76  75  98 CALM      30.02F
$$

MSZ003>006-009-014>017-022>024-029>033-037>039-230700-
NORTHEAST MISSISSIPPI

CITY           SKY/WX    TMP DP  RH WIND       PRES   REMARKS
COLUMBUS AFB   PTCLDY    78  78 100 CALM      30.00F
6HR MIN TEMP:  76; 6HR MAX TEMP:  86;

GOLDN TRIANGLE PTCLDY    79  70  73 W3          N/A
STARKVILLE     FAIR      75  73  94 CALM      30.02F
TUPELO         CLOUDY    76  71  85 W5        30.01F
6HR MIN TEMP:  76; 6HR MAX TEMP:  89; 6HR PCP:  0.02;

$$

MSZ040-058-230700-
CENTRAL MISSISSIPPI

CITY           SKY/WX    TMP DP  RH WIND       PRES   REMARKS
JACKSON INTL   CLEAR     78  75  90 S5        30.04S
6HR MIN TEMP:  78; 6HR MAX TEMP:  88;

JACKSON HAWKNS CLEAR     78  76  93 W5        30.04S
6HR MIN TEMP:  78; 6HR MAX TEMP:  88;

MADISON        FAIR      77  73  88 SW3       30.03F
MERIDIAN KEY   MOCLDY    78  77  96 S5        30.03S
6HR MIN TEMP:  78; 6HR MAX TEMP:  88;

MERIDIAN NAS   CLOUDY    78  75  90 MISG      30.02F
6HR MIN TEMP:  77; 6HR MAX TEMP:  85;

RAYMOND        FAIR      77  77 100 CALM      30.03F
VICKSBURG VKS  CLEAR     77  75  94 CALM      30.03S
$$

MSZ059>079-230700-
SOUTH MISSISSIPPI

CITY           SKY/WX    TMP DP  RH WIND       PRES   REMARKS
COLUMBIA       FAIR      75 N/A N/A CALM      30.07R
HATTIESBURG    CLEAR     77  77 100 CALM      30.05R
6HR MIN TEMP:  77; 6HR MAX TEMP:  86;

LAUREL         FAIR      76  76 100 CALM      30.04S
MCCOMB         CLEAR     75  72  90 NW5       30.05R
6HR MIN TEMP:  75; 6HR MAX TEMP:  82;

NATCHEZ        CLEAR     74  73  97 CALM      30.05R
6HR MIN TEMP:  74; 6HR MAX TEMP:  84;

PINE BELT      CLEAR     76  75  97 CALM      30.05R
6HR MIN TEMP:  76; 6HR MAX TEMP:  85;

$$

MSZ080>082-230700-
COASTAL MISSISSIPPI

CITY           SKY/WX    TMP DP  RH WIND       PRES   REMARKS
BILOXI         PTCLDY    78  76  94 NE3       30.00R
6HR MIN TEMP:  78; 6HR MAX TEMP:  83;

PASCAGOULA     CLEAR     73  71  93 CALM      30.01R FOG
6HR MIN TEMP:  73; 6HR MAX TEMP:  83;

GULFPORT       CLEAR     77  75  93 CALM      30.00R
6HR MIN TEMP:  76; 6HR MAX TEMP:  83;

$$

LAZ007>009-015>016-023>026-230700-
NORTHEAST LOUISIANA

CITY           SKY/WX    TMP DP  RH WIND       PRES   REMARKS
BASTROP        FAIR      75  74  97 CALM      30.03F
TALLULAH/VBURG CLEAR     75  74  96 CALM      30.03S
6HR MIN TEMP:  75; 6HR MAX TEMP:  88;

VIDALIA          N/A    N/A N/A N/A MISG      30.03R
$$




USA.gov is the U.S. government's official web portal to all federal, state and local government web resources and services.